Regional Weather Roundup
Issued by NWS

Home | Current Version | Previous Version | Graphics & Text | Print | Product List | Glossary On
Versions: 1 2 3 4 5 6 7 8 9 10 11 12 13 14 15 16 17 18 19 20 21 22 23 24 25 26 27 28 29 30 31 32 33 34 35 36 37 38 39 40 41 42 43 44 45 46 47 48 49 50
000
ASUS43 KLMK 260510
RWRKY
KENTUCKY REGIONAL WEATHER ROUNDUP
NATIONAL WEATHER SERVICE LOUISVILLE KY
100 AM EDT FRI MAY 26 2017

NOTE "FAIR" INDICATES FEW OR NO CLOUDS BELOW 12,000 FEET
WITH NO SIGNIFICANT WEATHER AND/OR OBSTRUCTIONS TO VISIBILITY.

KYZ001>023-026-027-061>063-070>075-260600-
WESTERN AND SOUTH CENTRAL KENTUCKY

CITY           SKY/WX    TMP DP  RH WIND       PRES   REMARKS
PADUCAH        CLEAR     62  49  62 S3        29.82S
HENDERSON      CLEAR     61  53  75 S3        29.84R
OWENSBORO      CLEAR     61  54  77 CALM      29.84R
HOPKINSVILLE   CLEAR     60  53  77 CALM      29.86R
BOWLING GREEN  CLEAR     61  54  77 SW5       29.87R
GLASGOW        CLEAR     58  52  82 CALM      29.88R
$$

KYZ024-025-028>034-038-045-046-053-260600-
NORTH CENTRAL KENTUCKY

CITY           SKY/WX    TMP DP  RH WIND       PRES   REMARKS
LOUISVILLE/SDF PTCLDY    60  57  89 CALM      29.83R
LOUISVILLE/LOU PTCLDY    58  57  97 CALM      29.84R
FORT KNOX      CLEAR     56  54  91 SW3       29.83R
$$

KYZ035>037-039>044-047>052-055>060-089>105-260600-
NORTHEAST KENTUCKY

CITY           SKY/WX    TMP DP  RH WIND       PRES   REMARKS
LEXINGTON      CLEAR     57  53  86 SW6       29.84R
COVINGTON      CLEAR     58  54  86 W8        29.80R
FRANKFORT      CLEAR     56  52  86 SW5       29.83R
$$

KYZ054-064>069-076>088-106>120-260600-
SOUTHEAST KENTUCKY

CITY           SKY/WX    TMP DP  RH WIND       PRES   REMARKS
JACKSON        CLOUDY    58  57  97 VRB3      29.85R
LONDON         MOCLDY    59  54  83 SW7       29.87R
SOMERSET       MOCLDY    55  55 100 CALM      29.88S
MIDDLESBORO    CLEAR     59  54  82 W3        29.88R
MONTICELLO     CLEAR     51  50  96 VRB7      29.90R
$$





USA.gov is the U.S. government's official web portal to all federal, state and local government web resources and services.